Regional Weather Roundup
Issued by NWS

Home | Current Version | Previous Version | Graphics & Text | Print | Product List | Glossary On
Versions: 1 2 3 4 5 6 7 8 9 10 11 12 13 14 15 16 17 18 19 20 21 22 23 24 25 26 27 28 29 30 31 32 33 34 35 36 37 38 39 40 41 42 43 44 45 46 47 48 49 50
000
ASUS43 KMKX 281411
RWRWI

WISCONSIN REGIONAL WEATHER ROUNDUP
NATIONAL WEATHER SERVICE MILWAUKEE/SULLIVAN WI
900 AM CDT SUN MAY 28 2017

NOTE: "FAIR" INDICATES FEW OR NO CLOUDS BELOW 12,000 FEET WITH NO
SIGNIFICANT WEATHER AND/OR OBSTRUCTIONS TO VISIBILITY.

WIZ001-002-006>008-014>016-023>028-281500-
NORTHWEST WISCONSIN

CITY           SKY/WX    TMP DP  RH WIND       PRES   REMARKS
SUPERIOR ARPT  NOT AVBL
ASHLAND        CLOUDY    61  49  64 SW7       29.67F
HAYWARD        LGT RAIN  59  49  69 SW5       29.68F
SIREN          PTSUNNY   59  49  69 W12G17    29.69S
CUMBERLAND     CLOUDY    59  48  67 W8        29.70S
RICE LAKE      PTSUNNY   60  50  69 SW5       29.71S
CHETEK         CLOUDY    60  51  72 SW7       29.71S
LADYSMITH      PTSUNNY   61  52  72 S9        29.72S
EAU CLAIRE     SUNNY     64  51  62 W13       29.71S
MENOMONIE      SUNNY     64  51  64 W8        29.71S
NEW RICHMOND   SUNNY     62  48  60 W13       29.72S
OSCEOLA        SUNNY     62  49  61 W13       29.74S
$$

WIZ003>005-009-010-017-018-281500-
NORTH CENTRAL WISCONSIN

CITY           SKY/WX    TMP DP  RH WIND       PRES   REMARKS
MANITOWISH WTR CLOUDY    56  55  96 SE5       29.71F
ARBOR VITAE    PTSUNNY   59  54  83 SE7       29.71F
WOODRUFF       PTSUNNY   59  54  83 SE7       29.71F
RHINELANDER    CLOUDY    58  52  80 SE5       29.74F
EAGLE RIVER    CLOUDY    55  54  95 SE3       29.73F
LAND O LAKES   CLOUDY    56  53  90 SE3       29.74F
PHILLIPS       CLOUDY    58  53  85 SE7       29.71F
TOMAHAWK       SUNNY     57  53  84 CALM      29.74S
MEDFORD        SUNNY     59  52  76 SE7       29.74S
MERRILL        SUNNY     58  53  83 SE5       29.74F
$$

WIZ029-030-035-036-043>047-281500-
CENTRAL WISCONSIN

CITY           SKY/WX    TMP DP  RH WIND       PRES   REMARKS
WAUSAU         MOSUNNY   59  53  80 SE3       29.73F
MOSINEE        MOSUNNY   57  57 100 SE3       29.76F
MARSHFIELD     SUNNY     61  53  75 S8        29.74F
STEVENS POINT  CLOUDY    56  54  92 CALM      29.76S
WAUPACA        PTSUNNY   61  56  82 CALM      29.77S
WAUTOMA        CLOUDY    60  55  83 CALM      29.78S
WISC RAPIDS    MOSUNNY   62  55  77 S5        29.77F
CAMP DOUGLAS   SUNNY     63  55  75 SE5       29.76S
$$

WIZ011>013-019>022-031-037>040-048>050-281500-
NORTHEAST WISCONSIN

CITY           SKY/WX    TMP DP  RH WIND       PRES   REMARKS
ANTIGO         CLOUDY    56  53  89 CALM      29.75F
SHAWANO        LGT RAIN  59  55  88 CALM      29.76S
OCONTO         CLOUDY    57  55  94 SW6       29.77R
STURGEON BAY   RAIN      58  55  90 SW9       29.78R
GREEN BAY      RAIN      57  57 100 S6        29.78R FOG
MANITOWOC      HVY RAIN  57  55  93 NW10      29.79R FOG
APPLETON       DRIZZLE   55  55 100 VRB5      29.76F
CLINTONVILLE   LGT RAIN  57  54  88 CALM      29.76F
OSHKOSH        LGT RAIN  57  55  93 CALM      29.78S
$$

WIZ032>034-041-042-053>061-281500-
SOUTHWEST WISCONSIN

CITY           SKY/WX    TMP DP  RH WIND       PRES   REMARKS
LA CROSSE      SUNNY     66  56  70 S8        29.75F
SPARTA         SUNNY     63  55  74 W6        29.77S
VIROQUA        SUNNY     64  50  58 SW5       29.78S
BOSCOBEL       SUNNY     66  56  70 VRB5      29.79S
PRAIRIE DU CHI SUNNY     65  53  63 CALM      29.79S
PLATTEVILLE    MOSUNNY   61  58  92 W3        29.80S
$$

WIZ056-057-062-063-064-067-068-281500-
SOUTH CENTRAL WISCONSIN

CITY           SKY/WX    TMP DP  RH WIND       PRES   REMARKS
REEDSBURG      CLOUDY    60  56  88 CALM      29.77F
BARABOO/DELLS  CLOUDY    59  55  85 CALM      29.78S
LONE ROCK      CLOUDY    63  57  81 CALM      29.78S
MINERAL POINT  CLOUDY    63  54  72 NW5       29.79F
MADISON        LGT RAIN  58  55  90 CALM      29.77S
MIDDLETON      CLOUDY    60  56  85 CALM      29.79S
WATERTOWN      DRIZZLE   57  57 100 CALM      29.78R
MONROE         CLOUDY    57  55  94 NE7       29.79R
JANESVILLE     CLOUDY    57  57 100 N6        29.79R
$$

WIZ051-052-058>065-066-070>072-281500-
SOUTHEAST WISCONSIN

CITY           SKY/WX    TMP DP  RH WIND       PRES   REMARKS
MILWAUKEE      TSTM      61  59  93 N6        29.78R FOG
WAUKESHA       RAIN      57  57 100 N8        29.78S FOG
MILWAUKEE/TIMM TSTM      57  55  94 N5        29.78R FOG
RACINE         CLOUDY    61  56  83 NW6       29.79R
KENOSHA        CLOUDY    62  56  80 NW8       29.77S
FOND DU LAC    LGT RAIN  58  54  86 CALM      29.78S
SHEBOYGAN      RAIN      57  57 100 N6        29.78S FOG
WEST BEND      RAIN      55  55 100 N7        29.78F
JUNEAU         DRIZZLE   56  54  94 NE6       29.79F
$$

LSZ147-162-281500-
LAKE SUPERIOR

STATION/POSITION TIME  TEMP    WIND        PRES    WAVE
                       AIR SEA DIR/SP/G            HT/PER
                 (UTC) (F)     (DEG/KT/KT) (MB)    (FT/S)
W MID LAKE BUOY  1250   47 37  160/ 10/ 10 1004.7F   1
DEVILS ISLAND    1400   58     230/ 11/ 14 1004.5S
PORT WING        1330   59      CALM  /  3 1004.7F
SAXON HARBOR     1340   66     180/  7/ 11 1004.4S
$$

LMZ867-665-643>646-281500-
LAKE MICHIGAN

STATION/POSITION TIME  TEMP    WIND        PRES    WAVE
                       AIR SEA DIR/SP/G            HT/PER
                 (UTC) (F)     (DEG/KT/KT) (MB)    (FT/S)
CHAMBERS ISLAND  1340   56      CALM  /  3 1006.4S
N MID LAKE BUOY  1350   49 41  120/  6/ 10 1006.9F   1
NORTHPORT PIER   1340   54     290/  5/  8 1006.4F
ALGOMA LAKESHORE 1301          320/  3/  5   N/A
KEWAUNEE LAKESHO 1348   58     290/  8/ 12 1008.1R
SHEBOYGAN LAKESH 1400   57     280/  8/ 11 1008.4R
PORT WASHINGTON  1340   58     300/  3/  9 1009.1S
ATWATER BUOY     1309   54     320/  6/  6 1008.4R
MILWAUKEE LAKESH 1350   59     310/  2/  3   N/A
S MID LAKE BUOY  1250   53 50  120/  2/  4 1007.5R   0
KENOSHA   LAKESH 1400   61      CALM  /  4 1008.1
$$

TC  - TEMPERATURE IN CELSIUS
VSB - VISIBILITY IN STATUTE MILES
WCI - WIND CHILL INDEX
HX  - HEAT INDEX




USA.gov is the U.S. government's official web portal to all federal, state and local government web resources and services.